Location: Sternwarte auf dem Internationalen Platz Vogelsang IP
(50.5721°N, 6.4398°E)
Time: 21:24:25
(UTC+01:00)

Transit 2A Rocket - Pass Details

Date: 14 December 2025
Orbit: 581 x 903 km, 66.7° (Epoch: 12 January)

Event Time Altitude Azimuth Distance (km) Brightness Sun altitude
Rises 14:19:28 0° 315° (NW) 3,517 8.2 12.3°
Reaches altitude 10° 14:22:41 10° 331° (NNW) 2,589 7.4 12.0°
Maximum altitude 14:27:08 21° 19° (NNE) 1,929 6.6 11.7°
Drops below altitude 10° 14:31:33 10° 66° (ENE) 2,560 7.3 11.4°
Sets 14:34:42 0° 83° (E) 3,465 8.0 11.1°
